SCP
0 0 0 0 0 0 0 0 0 0 0 0 0 0 0 0 0 0 0 0 0 0 0 0 0 0 0 0 0 0 0 0 0 0 0 0 0 0 0 0 0 0 0 0
0 0 0 0 0 0 0 0 0 0 0 0 0 0 0 0 0 0 0 0 0 0 0 0 0 0 0 0 0 0 0 0 0 0 0 0 0 0 0 0 0 0 0 0
0 0 0 0 0 0 0 0 0 0 0 0 0 0 0 0 0 0 0 0 0 0 0 0 0 0 0 0 0 0 0 0 0 0 0 0 0 0 0 0 0 0 0 0
0 0 0 0 0 0 0 0 0 0 0 0 0 0 0 0 0 0 0 0 0 0 0 0 0 0 0 0 0 0 0 0 0 0 0 0 0 0 0 0 0 0 0 0
0 0 0 0 0 0 0 0 0 0 0 0 0 0 0 0 0 0 0 0 0 0 0 0 0 0 0 0 0 0 0 0 0 0 0 0 0 0 0 0 0 0 0 0
0 0 0 0 0 0 0 0 0 0 0 0 0 0 0 0 0 0 0 0 0 0 0 0 0 0 0 0 0 0 0 0 0 0 0 0 0 0 0 0 0 0 0 0
0 0 0 0 0 0 0 0 0 0 0 0 0 0 0 0 0 0 0 0 0 0 0 0 0 0 0 0 0 0 0 0 0 0 0 0 0 0 0 0 0 0 0 0
0 0 0 0 0 0 0 0 0 0 0 0 0 0 0 0 0 0 0 0 0 0 0 0 0 0 0 0 0 0 0 0 0 0 0 0 0 0 0 0 0 0 0 0
0 0 0 0 0 0 0 0 0 0 0 0 0 0 0 0 0 0 0 0 0 0 0 0 0 0 0 0 0 0 0 0 0 0 0 0 0 0 0 0 0 0 0 0
0 0 0 0 0 0 0 0 0 0 0 0 0 0 0 0 0 0 0 0 0 0 0 0 0 0 0 0 0 0 0 0 0 0 0 0 0 0 0 0 0 0 0 0
0 0 0 0 0 0 0 0 0 0 0 0 0 0 0 0 0 0 0 0 0 0 0 0 0 0 0 0 0 0 0 0 0 0 0 0 0 0 0 0 0 0 0 0
0 0 0 0 0 0 0 0 0 0 0 0 0 0 0 0 0 0 0 0 0 0 0 0 0 0 0 0 0 0 0 0 0 0 0 0 0 0 0 0 0 0 0 0
0 0 0 0 0 0 0 0 0 0 0 0 0 0 0 0 0 0 0 0 0 0 0 0 0 0 0 0 0 0 0 0 0 0 0 0 0 0 0 0 0 0 0 0
0 0 0 0 0 0 0 0 0 0 0 0 0 0 0 0 0 0 0 0 0 0 0 0 0 0 0 0 0 0 0 0 0 0 0 0 0 0 0 0 0 0 0 0
0 0 0 0 0 0 0 0 0 0 0 0 0 0 0 0 0 0 0 0 0 0 0 0 0 0 0 0 0 0 0 0 0 0 0 0 0 0 0 0 0 0 0 0
0 0 0 0 0 0 0 0 0 0 0 0 0 0 0 0 0 0 0 0 0 0 0 0 0 0 0 0 0 0 0 0 0 0 0 0 0 0 0 0 0 0 0 0
0 0 0 0 0 0 0 0 0 0 0 0 0 0 0 0 0 0 0 0 0 0 0 0 0 0 0 0 0 0 0 0 0 0 0 0 0 0 0 0 0 0 0 0
0 0 0 0 0 0 0 0 0 0 0 0 0 0 0 0 0 0 0 0 0 0 0 0 0 0 0 0 0 0 0 0 0 0 0 0 0 0 0 0 0 0 0 0
0 0 0 0 0 0 0 0 0 0 0 0 0 0 0 0 0 0 0 0 0 0 0 0 0 0 0 0 0 0 0 0 0 0 0 0 0 0 0 0 0 0 0 0
0 0 0 0 0 0 0 0 0 0 0 0 0 0 0 0 0 0 0 0 0 0 0 0 0 0 0 0 0 0 0 0 0 0 0 0 0 0 0 0 0 0 0 0
0 0 0 0 0 0 0 0 0 0 0 0 0 0 0 0 0 0 0 0 0 0 0 0 0 0 0 0 0 0 0 0 0 0 0 0 0 0 0 0 0 0 0 0
0 0 0 0 0 0 0 0 0 0 0 0 0 0 0 0 0 0 0 0 0 0 0 0 0 0 0 0 0 0 0 0 0 0 0 0 0 0 0 0 0 0 0 0
0 0 0 0 0 0 0 0 0 0 0 0 0 0 0 0 0 0 0 0 0 0 0 0 0 0 0 0 0 0 0 0 0 0 0 0 0 0 0 0 0 0 0 0
0 0 0 0 0 0 0 0 0 0 0 0 0 0 0 0 0 0 0 0 0 0 0 0 0 0 0 0 0 0 0 0 0 0 0 0 0 0 0 0 0 0 0 0
0 0 0 0 0 0 0 0 0 0 0 0 0 0 0 0 0 0 0 0 0 0 0 0 0 0 0 0 0 0 0 0 0 0 0 0 0 0 0 0 0 0 0 0
0 0 0 0 0 0 0 0 0 0 0 0 0 0 0 0 0 0 0 0 0 0 0 0 0 0 0 0 0 0 0 0 0 0 0 0 0 0 0 -0 -0 0 0 0
0 0 0 0 0 0 0 0 0 0 0 0 0 0 0 0 0 0 0 0 0 0 0 0 0 0 0 0 0 0 0 0 0 0 0 0 0 -0 -0 -0 -0 -0 0 0
Wind_Speed
3 2 2 4 7 9 10 9 7 7 8 6 1 3 5 6 7 8 8 8 8 7 7 7 6 5 4 3 3 2 1 2 4 4 4 5 6 6 7 7 8 8 9 9
3 2 2 4 6 8 10 11 11 11 12 4 2 3 3 4 6 7 8 8 8 7 7 7 6 5 4 3 2 2 2 4 4 4 5 6 6 7 7 8 8 9 9 9
3 2 0 7 10 12 10 9 8 10 8 1 1 2 2 1 3 6 7 8 8 7 6 5 5 4 3 2 1 1 3 4 5 5 6 6 7 7 8 8 9 9 9 9
2 2 7 7 1 2 6 8 8 7 4 2 3 4 3 2 3 5 7 8 7 6 6 5 4 3 2 1 1 3 4 5 5 5 6 7 7 8 8 8 8 8 8 9
3 4 7 6 4 4 3 4 4 4 1 5 7 4 1 2 4 6 7 7 7 6 6 4 4 3 2 1 2 4 5 6 6 5 6 7 8 9 9 8 8 8 8 9
3 4 7 2 2 2 2 4 1 2 3 7 6 2 2 5 7 8 8 7 6 5 4 3 3 2 1 2 4 5 6 6 6 6 7 8 9 9 8 7 9 9 9 9
5 6 7 2 4 4 4 4 2 2 3 6 5 3 5 7 7 8 8 7 6 4 3 2 2 1 2 4 5 6 6 6 6 7 8 9 8 7 8 8 8 8 9 8
6 6 9 6 6 6 3 3 2 2 3 5 6 7 7 7 7 7 6 5 4 3 2 1 1 1 3 5 6 6 6 7 7 8 8 7 8 8 8 8 8 9 9 10
8 7 2 7 4 3 3 3 2 2 3 7 8 6 6 6 6 5 5 4 3 2 1 1 2 2 4 6 6 6 7 7 8 8 7 7 8 8 8 7 7 8 8 9
2 2 5 4 3 3 3 2 3 3 4 6 7 7 6 6 5 4 4 4 2 1 1 3 3 3 4 6 6 6 7 7 7 7 8 7 6 6 6 6 7 7 8 10
4 2 3 4 4 3 3 3 3 4 4 5 7 6 6 5 4 4 3 3 2 1 3 4 4 5 5 6 6 7 7 7 7 7 7 7 7 6 8 7 9 12 9 8
4 3 4 3 3 4 5 4 4 5 4 4 5 6 5 4 4 4 3 2 1 2 4 4 5 6 6 6 6 6 7 7 6 6 6 7 8 9 12 14 22 23 23 21
3 3 4 4 4 4 4 4 5 5 5 5 4 5 4 4 3 3 2 1 2 3 4 5 6 7 7 6 6 6 7 7 6 6 7 7 8 9 11 13 17 21 23 25
4 4 3 3 3 4 5 5 5 5 5 5 4 5 4 3 2 1 1 2 3 4 5 6 6 7 7 6 6 7 7 9 9 7 7 7 8 8 9 12 13 9 13 21
3 3 4 5 5 5 5 6 6 5 5 5 5 4 3 2 1 1 2 3 4 5 6 6 7 8 7 7 7 7 7 6 7 7 7 8 9 9 9 11 11 12 9 11
5 5 5 6 6 6 5 5 5 5 4 4 3 3 2 1 1 3 4 4 4 6 6 7 8 9 8 7 7 7 7 14 14 9 8 8 9 9 10 10 11 11 11 10
7 5 5 6 6 6 5 4 4 5 4 3 3 2 1 1 3 4 5 4 4 6 7 8 9 9 8 7 7 6 6 9 16 12 9 9 9 10 10 10 11 11 10 12
3 4 5 6 6 6 6 5 5 5 3 2 2 0 1 3 4 5 5 6 7 8 8 9 9 8 7 7 6 6 7 7 8 9 9 9 10 10 9 10 11 12 10 11
6 7 7 7 7 7 6 5 4 3 2 1 0 2 3 4 5 6 6 6 8 10 10 8 13 10 8 9 11 7 7 9 9 9 9 14 13 9 9 9 10 10 10 10
8 8 8 8 7 6 5 4 3 1 1 0 1 3 5 6 6 6 7 7 8 8 9 10 9 7 7 8 13 7 8 9 10 11 10 10 10 9 9 9 10 10 10 10
8 8 7 6 5 4 3 2 1 0 1 2 3 5 6 7 7 7 7 9 9 9 9 13 8 6 6 10 15 8 8 9 10 10 10 10 9 9 9 9 10 11 11 10
6 6 6 5 3 2 1 1 1 2 3 4 5 6 7 8 8 8 9 9 10 12 9 6 5 10 15 18 9 8 9 10 10 9 9 9 9 9 10 10 10 11 10 10
5 5 4 3 2 1 2 2 3 4 5 6 6 7 8 8 6 7 10 7 6 13 10 6 13 21 25 14 8 8 9 10 9 9 9 8 8 9 9 10 10 10 10 10
4 3 2 1 1 2 4 5 5 5 6 6 7 8 8 8 7 7 7 12 15 17 10 13 22 24 24 9 7 8 8 8 8 8 9 8 8 8 9 9 10 9 10 11
2 1 0 1 2 3 5 5 5 6 6 6 7 8 6 6 7 7 7 8 14 17 9 13 22 23 14 7 7 8 7 8 10 10 8 8 8 8 9 9 9 10 10 10
1 1 2 3 3 3 3 3 4 4 5 6 6 5 5 5 6 7 7 8 11 16 12 8 9 12 8 7 8 8 8 9 10 8 8 9 9 9 9 9 11 10 10 10
1 2 2 3 3 3 3 3 4 5 5 6 8 6 6 6 7 8 9 8 8 8 8 8 7 7 7 8 8 8 8 8 8 8 8 8 8 8 9 11 10 9 9 10
Wind_Direction
274 97 141 206 201 197 210 226 240 257 269 284 277 177 170 165 161 152 151 154 154 155 151 148 149 149 145 145 149 157 213 259 267 273 281 285 285 284 284 283 282 279 278 277
272 203 217 263 249 228 223 231 245 266 274 293 38 74 98 140 153 160 161 157 152 149 146 148 151 150 144 158 172 180 239 261 270 276 279 278 278 280 281 281 280 279 278 277
247 198 204 254 231 226 226 222 219 242 255 24 69 90 93 107 147 160 155 149 149 147 143 142 142 141 153 171 176 227 258 267 271 271 274 275 277 282 281 281 281 281 279 279
225 175 234 239 137 201 230 244 230 238 245 164 119 98 65 90 143 145 138 137 137 134 132 130 128 135 147 167 231 256 264 269 271 272 274 278 281 281 280 278 280 281 283 284
192 223 261 256 197 171 196 265 243 236 224 105 98 83 55 76 101 120 120 120 121 121 124 127 138 152 162 231 262 270 273 275 276 278 281 284 282 280 279 281 284 284 284 286
187 209 238 239 100 100 117 269 332 113 117 127 122 151 201 121 98 96 98 100 105 108 117 137 156 146 180 258 272 275 276 277 281 283 283 281 279 279 280 282 282 283 283 282
209 225 251 173 153 134 171 227 71 87 127 145 163 169 136 116 104 104 104 107 113 123 138 158 149 150 246 267 270 273 279 284 285 281 279 278 280 280 282 282 283 284 287 287
192 221 243 163 159 187 186 136 119 116 133 137 121 110 113 113 115 117 119 125 131 136 150 161 172 227 264 269 271 279 285 285 283 281 281 285 284 284 283 285 289 289 290 290
194 207 198 159 160 133 117 126 128 131 128 133 134 137 132 132 132 133 137 138 136 142 175 245 252 247 264 272 279 286 286 284 284 286 285 284 285 288 290 287 284 286 287 290
263 191 154 166 143 143 138 128 112 123 132 138 143 144 145 144 143 143 140 140 141 154 243 271 276 276 272 282 288 289 288 288 289 291 290 287 285 284 285 284 283 285 288 291
236 213 147 190 198 173 145 129 119 115 127 143 143 145 147 148 150 147 140 140 152 212 258 271 281 283 283 286 291 290 288 287 289 287 288 290 285 279 284 272 279 291 289 286
212 189 168 159 145 138 143 150 143 133 123 121 133 140 139 142 142 138 144 155 197 248 269 281 289 288 287 287 288 289 290 288 286 286 287 287 289 290 283 283 294 296 295 295
127 80 90 103 97 108 128 133 134 139 141 132 123 125 128 126 124 124 139 193 245 263 274 283 286 285 286 288 291 288 285 286 286 285 287 287 288 292 297 297 293 295 297 299
118 117 127 141 132 118 117 116 114 112 114 117 112 108 105 105 107 120 229 262 274 280 281 282 284 284 290 297 296 289 287 289 290 284 283 286 287 289 292 297 300 295 294 298
156 141 134 123 116 112 112 114 117 117 112 103 100 104 109 116 153 256 276 282 280 277 277 281 285 286 293 293 290 287 287 283 282 280 281 284 286 288 288 289 292 296 296 297
135 121 126 134 138 134 133 135 135 133 125 118 116 120 123 140 259 275 273 270 272 277 279 281 280 281 283 283 284 283 280 287 294 291 287 287 287 287 288 289 292 294 296 299
144 158 161 156 149 143 137 132 128 124 119 120 119 114 105 287 280 276 278 286 284 277 276 276 276 278 277 278 281 281 280 285 292 293 286 286 287 286 286 288 290 293 294 298
141 131 136 139 136 129 119 109 105 108 112 113 105 86 278 277 280 285 290 293 289 283 277 272 273 277 277 280 280 277 279 280 282 284 285 285 286 284 285 288 291 293 295 300
103 99 95 96 104 109 109 106 104 106 113 122 200 275 278 278 277 277 282 284 284 284 281 273 284 286 280 279 288 278 278 282 285 285 284 287 291 286 286 288 291 294 297 299
94 93 92 89 89 97 102 101 99 96 97 127 278 279 279 277 279 282 282 275 266 265 272 280 282 276 276 279 291 281 279 283 286 288 288 286 288 289 290 292 294 295 296 296
98 98 98 97 93 91 93 91 80 317 292 279 268 268 270 275 277 278 279 282 278 271 275 286 287 281 284 290 295 288 285 286 287 288 289 290 290 292 293 294 295 297 298 298
103 101 98 93 88 79 66 46 317 285 282 277 272 271 274 277 277 274 263 267 280 289 292 284 283 292 298 300 294 289 288 288 289 289 289 290 291 293 295 296 296 297 296 296
97 97 93 86 74 16 329 306 282 270 268 268 270 271 270 271 272 279 286 281 281 295 298 284 294 301 303 303 293 290 288 289 290 291 291 291 292 293 295 296 296 296 297 296
92 89 87 70 29 318 293 283 275 266 263 264 263 262 265 274 275 262 264 288 298 299 295 295 302 304 306 300 290 287 287 288 289 289 290 291 291 291 292 294 296 297 297 297
107 113 196 271 275 265 266 278 286 282 275 269 267 266 260 256 270 283 285 288 296 301 296 298 302 304 303 291 289 288 289 287 290 294 293 294 293 293 293 293 294 296 296 296
147 239 254 252 252 261 270 275 275 276 281 285 284 280 279 279 281 288 290 289 289 296 297 293 293 297 293 289 289 290 291 295 297 294 288 288 288 290 293 294 293 294 295 295
248 262 271 278 274 263 261 266 274 279 282 286 291 292 290 291 290 289 290 291 292 290 290 291 290 289 289 289 288 288 287 286 286 286 287 286 287 290 293 294 295 295 295 295